Location: ??
(35.1714°N, 128.2806°E)
Time: 15:38:44
(UTC+00:00)

CBERS 1 LM4 rocket - Pass Details

Date: 29 October 2020
Orbit: 700 x 843 km, 98.8° (Epoch: 30 November)

Event Time Altitude Azimuth Distance (km) Brightness Sun altitude
Rises 20:02:05 0° 6° (N) 3,157 7.7 -21.8°
Reaches altitude 10° 20:04:27 10° 1° (N) 2,214 6.9 -21.3°
Maximum altitude 20:09:05 48° 288° (WNW) 920 4.5 -20.4°
Enters shadow 20:09:59 42° 254° (WSW) 997 4.6 -20.2°
